Regional Weather Roundup
Issued by NWS

Home | Current Version | Previous Version | Text Only | Print | Product List | Glossary On
Versions: 1 2 3 4 5 6 7 8 9 10 11 12 13 14 15 16 17 18 19 20 21 22 23 24 25 26 27 28 29 30 31 32 33 34 35 36 37 38 39 40 41 42 43 44 45 46 47 48 49 50
000
ASUS43 KDTX 221410
RWRMI
MICHIGAN HOURLY REGIONAL WEATHER ROUNDUP
NATIONAL WEATHER SERVICE DETROIT/PONTIAC MI
1000 AM EDT MON SEP 22 2014

NOTE: "FAIR" INDICATES FEW OR NO CLOUDS BELOW 12,000 FEET WITH NO
SIGNIFICANT WEATHER AND/OR OBSTRUCTION TO VISIBILITY.

MIZ047>049-052>055-059>063-066>070-074>076-081>083-221500-
SOUTHEAST LOWER MICHIGAN

CITY           SKY/WX    TMP DP  RH WIND       PRES   REMARKS
ADRIAN         MOSUNNY   51  39  63 N9        30.22R
ALMA           SUNNY     50  42  74 NW9       30.22R
ANN ARBOR      CLOUDY    50  39  66 NW9       30.20R
BAD AXE        CLOUDY    49  42  77 W9        30.16R
DETROIT CITY   CLOUDY    52  36  54 N10       30.19R
DETROIT        CLOUDY    50  38  63 NW10      30.21R
FLINT          CLOUDY    51  41  68 NW10      30.20R
GROSSE ILE     CLOUDY    52  37  58 N10       30.19R
HILLSDALE      SUNNY     50  41  70 NW10      30.22R
HOWELL         PTSUNNY   49  41  75 W12       30.20R

CITY           SKY/WX    TMP DP  RH WIND       PRES   REMARKS
JACKSON        MOSUNNY   50  41  71 NW6       30.22R
LAMBERTVILLE   CLOUDY    52  37  58 NW9       30.21R
LANSING        MOSUNNY   49  40  71 NW7       30.22R
LAPEER         NOT AVBL
MASON          SUNNY     48  41  75 NW7       30.22R
MONROE         CLOUDY    52  39  62 NW10G16   30.19R
MT. CLEMENS    CLOUDY    51  39  63 NW8       30.15R
PONTIAC        PTSUNNY   50  38  63 NW12      30.17R
PORT HOPE        N/A     50  40  68 W10G23    30.14R
PORT HURON     CLOUDY    50  41  71 NW9       30.16R
TRI CITIES     SUNNY     51  41  68 W10       30.21R
YPSILANTI      CLOUDY    53  39  59 NW9       30.21R
$$
MIZ043>046-050>051-056>058-064>065-071>073-077>080-221500-
SOUTHWEST LOWER MICHIGAN

CITY           SKY/WX    TMP DP  RH WIND       PRES   REMARKS
BATTLE CREEK   SUNNY     50  39  66 NW14      30.23R
BENTON HARBOR  MOSUNNY   53  42  66 NE3       30.25R
BIG RAPIDS     SUNNY     49  44  83 N8        30.21R
COLDWATER      SUNNY     51  41  69 NW9       30.24R
HOLLAND        SUNNY     55  43  63 N7        30.25R
GRAND RAPIDS   MOSUNNY   52  41  66 NW12      30.24R
KALAMAZOO      SUNNY     51  39  63 N9        30.24R
MARSHALL       SUNNY     49  40  70 NW6       30.23R
MUSKEGON       MOSUNNY   54  43  66 N10       30.25R
$$
MIZ016>042-221500-
NORTHERN LOWER MICHIGAN

CITY           SKY/WX    TMP DP  RH WIND       PRES   REMARKS
ALPENA         MOSUNNY   47  38  71 W8        30.14S
BEAVER ISLAND  SUNNY     52  43  69 W10       30.17S
BELLAIRE       MOSUNNY   51  43  72 NW3       30.19S
CADILLAC       SUNNY     48  42  81 NW9       30.19R
CHARLEVOIX     SUNNY     53  43  69 W12       30.21R
FRANKFORT      PTSUNNY   53  44  71 NW9       30.21R
GAYLORD        SUNNY     46  39  76 NW8       30.16R
GRAYLING       SUNNY     49  40  72 NW8       30.17S
HARBOR SPRINGS SUNNY     51  42  69 W6        30.17S
HOUGHTON LAKE  SUNNY     48  40  73 NW9       30.18R
MANISTEE       PTSUNNY   52  43  71 NW10      30.23R
OSCODA         CLOUDY    47  39  71 NW12      30.15R
PELLSTON       MOSUNNY   50  42  74 NW9       30.17R
TRAVERSE CITY  MOSUNNY   51  41  68 W10       30.20R
$$
MIZ007>008-015-221500-
EASTERN UPPER MICHIGAN

CITY           SKY/WX    TMP DP  RH WIND       PRES   REMARKS
KINROSS        MOSUNNY   45  39  81 W8        30.14R
MACKINAC ISLAN MOSUNNY   47  38  73 W8        30.16R
NEWBERRY       MOSUNNY   44  39  82 SW12G17   30.15R
S. S. MARIE    MOSUNNY   48  38  68 NW7       30.12S
$$
MIZ004>006-011>014-085-221500-
CENTRAL UPPER MICHIGAN

CITY           SKY/WX    TMP DP  RH WIND       PRES   REMARKS
MANISTIQUE     PTSUNNY   48  44  85 SW7       30.17S
ESCANABA       CLOUDY    43  37  81 W6        30.18S
MENOMINEE      CLOUDY    45  43  93 W5        30.19F
SAWYER-GWINN   CLOUDY    43  41  93 CALM      30.14S
$$
MIZ001>003-009>011-084-221500-
WESTERN UPPER MICHIGAN

CITY           SKY/WX    TMP DP  RH WIND       PRES   REMARKS
IRON MOUNTAIN  CLOUDY    46  42  86 CALM      30.18R
HOUGHTON       SUNNY     54  48  80 W13       30.12S
COPPER HARBOR    N/A     56  47  71 NW10G20   30.10S
IRONWOOD       SUNNY     52  50  93 W9        30.18R
$$

ABBREVIATIONS USED IN REMARKS
   TC - TEMPERATURE IN CELSIUS
  WCI - WIND CHILL INDEX
   HX - HEAT INDEX
  VSB - VISIBILITY



USA.gov is the U.S. government's official web portal to all federal, state and local government web resources and services.